Flag for Norway Weather past 2 weeks in Grimstad, Norway

Now
66 °F

Sunny.


Feels Like: 66 °F
Forecast: 58 / 80 °F
Wind: 6 mph from Northeast

Location: Kristiansand / Kjevik

Current Time: Jul 23, 2014 at 8:44:48 AM

Latest Report: Jul 23, 2014 at 7:50 AM


Visibility: 10 mi

Pressure: 30.30 "Hg

Humidity: 83%

Dew point: 61 °F

Location of GrimstadLocation

Historic Weather in Grimstad — Graph

°F

Grimstad temperature yesterday

Maximum temperature yesterday: 82 °F (at 2:20 PM)
Minimum temperature yesterday: 59 °F (at 2:50 AM)
Average temperature yesterday: 71 °F

Past Weeks' High & Low Weather Summary

 TemperatureHumidityPressure
High82 °F (Jul 9, 5:50 PM)100% (Jul 8, 10:50 PM)30.30 "Hg (Jul 8, 10:50 PM)
Low50 °F (Jul 19, 4:20 AM)37% (Jul 10, 12:50 PM)29.56 "Hg (Jul 14, 1:50 AM)
Average67 °F70%30.01 "Hg
* Reported Jul 8 7:20 AM — Jul 23 7:50 AM, Grimstad, Weather by CustomWeather, © 2014

Note: Actual official high and low records may vary slightly from our data, if they occured in-between our weather recording intervals... More about our weather records

Advertising

Grimstad weather history for previous 24 hours

 ConditionsComfort  
Time TempWeatherWind HumidityBarometerVisibility
7:50 AM
Jul 23
66 °FSunny.6 mph83%30.30 "Hg10 mi
7:20 AM64 °FPassing clouds.5 mph83%30.30 "HgN/A
6:50 AM61 °FPassing clouds.6 mph88%30.30 "HgN/A
6:20 AM59 °FPassing clouds.7 mph94%30.30 "HgN/A
5:50 AM59 °FPassing clouds.7 mph94%30.30 "HgN/A
5:20 AM59 °FCool.7 mph94%30.30 "HgN/A
4:50 AM59 °FCool.7 mph94%30.30 "HgN/A
4:20 AM59 °FCool.7 mph94%30.30 "HgN/A
3:50 AM59 °FCool.7 mph94%30.30 "HgN/A
3:20 AM59 °FCool.6 mph94%30.30 "HgN/A
2:50 AM61 °FCool.7 mph88%30.30 "HgN/A
2:20 AM59 °FCool.6 mph94%30.27 "HgN/A
1:50 AM61 °FCool.6 mph88%30.27 "HgN/A
6:50 PM
Jul 22
79 °FSunny.9 mph48%30.24 "Hg10 mi
6:20 PM79 °FSunny.9 mph48%30.24 "Hg10 mi
5:50 PM81 °FSunny.9 mph45%30.24 "Hg10 mi
5:20 PM81 °FSunny.8 mph45%30.24 "Hg10 mi
4:50 PM81 °FSunny.8 mph45%30.27 "Hg10 mi
4:20 PM81 °FPassing clouds.6 mph45%30.27 "HgN/A
3:50 PM82 °FPassing clouds.9 mph40%30.27 "HgN/A
3:20 PM82 °FPassing clouds.6 mph42%30.27 "HgN/A
2:50 PM82 °FPassing clouds.8 mph40%30.27 "HgN/A
2:20 PM82 °FPassing clouds.9 mph37%30.27 "HgN/A
1:50 PM81 °FPassing clouds.7 mph45%30.27 "HgN/A
1:20 PM81 °FPassing clouds.8 mph51%30.27 "HgN/A
12:50 PM81 °FPassing clouds.10 mph51%30.27 "HgN/A
12:20 PM81 °FSunny.9 mph48%30.27 "Hg10 mi
11:50 AM79 °FSunny.10 mph54%30.24 "Hg10 mi
11:20 AM79 °FPassing clouds.8 mph58%30.24 "HgN/A
10:50 AM77 °FSunny.2 mph61%30.24 "Hg10 mi
10:20 AM75 °FSunny.1 mph61%30.24 "Hg10 mi
9:50 AM70 °FSunny.3 mph69%30.24 "Hg10 mi
9:20 AM68 °FSunny.2 mph73%30.24 "Hg10 mi
8:50 AM66 °FSunny.2 mph78%30.24 "Hg10 mi
8:20 AM64 °FSunny.3 mph83%30.21 "Hg10 mi
Weather by CustomWeather, © 2014

See weather overviewHow to use our weather pages